This is the latest recevied weather packets stored in our database for station/object N4DBJ. If no packets are shown the sender has not sent any weather packets the latest 10 day(s).
| Time | Temp. | Humidity | Pressure | Rain* | Wind** | Luminosity | Snow |
|---|---|---|---|---|---|---|---|
| 1777930930 | 26.67° C | 43% | 1007.2 hPa | 0 mm | - | 353 W/m² | - |
| 1777930627 | 27.22° C | 43% | 1007.4 hPa | 0 mm | - | 359 W/m² | - |
| 1777930323 | 26.67° C | 44% | 1007.2 hPa | 0 mm | - | 400 W/m² | - |
| 1777930020 | 25.56° C | 44% | 1007.4 hPa | 0 mm | - | 421 W/m² | - |
| 1777929717 | 26.67° C | 43% | 1007.3 hPa | 0 mm | - | 108 W/m² | - |
| 1777929414 | 28.33° C | 43% | 1007.4 hPa | 0 mm | - | 503 W/m² | - |
| 1777929110 | 27.22° C | 44% | 1007.5 hPa | 0 mm | - | 503 W/m² | - |
| 1777928808 | 26.67° C | 45% | 1007.3 hPa | 0 mm | - | 526 W/m² | - |
| 1777928504 | 26.67° C | 43% | 1007.4 hPa | 0 mm | - | 541 W/m² | - |
| 1777928202 | 26.67° C | 43% | 1007.5 hPa | 0 mm | - | 523 W/m² | - |
| 1777927899 | 26.67° C | 43% | 1007.5 hPa | 0 mm | - | 542 W/m² | - |
| 1777927597 | 26.67° C | 43% | 1007.4 hPa | 0 mm | - | 565 W/m² | - |
| 1777927296 | 26.67° C | 43% | 1007.4 hPa | 0 mm | - | 575 W/m² | - |
| 1777926994 | 26.67° C | 43% | 1007.4 hPa | 0 mm | - | 592 W/m² | - |
| 1777926692 | 26.67° C | 45% | 1007.4 hPa | 0 mm | - | 541 W/m² | - |
| 1777926392 | 26.67° C | 42% | 1007.5 hPa | 0 mm | - | 535 W/m² | - |
| 1777926089 | 26.67° C | 43% | 1007.7 hPa | 0 mm | - | 546 W/m² | - |
| 1777925785 | 26.67° C | 43% | 1007.8 hPa | 0 mm | - | 639 W/m² | - |
| 1777925484 | 26.67° C | 44% | 1007.8 hPa | 0 mm | - | 652 W/m² | - |
| 1777925180 | 26.67° C | 44% | 1007.8 hPa | 0 mm | - | 645 W/m² | - |
| 1777924876 | 27.22° C | 43% | 1008 hPa | 0 mm | - | 649 W/m² | - |
| 1777924573 | 26.67° C | 44% | 1007.7 hPa | 0 mm | - | 593 W/m² | - |
| 1777924269 | 26.67° C | 45% | 1007.9 hPa | 0 mm | - | 558 W/m² | - |
| 1777923966 | 26.67° C | 45% | 1008.1 hPa | 0 mm | - | 631 W/m² | - |
| 1777923661 | 27.22° C | 46% | 1008.1 hPa | 0 mm | - | 635 W/m² | - |
* Rain latest hour (hover to see other rain measurements)
** Current wind speed in m/s (hover to see current wind gust speed)